This is the latest recevied weather packets stored in our database for station/object JH5HTX-13. If no packets are shown the sender has not sent any weather packets the latest 10 day(s).
| Time | Temp. | Humidity | Pressure | Rain* | Wind** | Luminosity | Snow |
|---|---|---|---|---|---|---|---|
| 1777590861 | 16.67° C | 92% | 1003.7 hPa | 0 mm | - | - | - |
| 1777589961 | 16.11° C | 94% | 1003.8 hPa | 0 mm | - | - | - |
| 1777589061 | 15.56° C | 95% | 1003.6 hPa | 0 mm | - | - | - |
| 1777588161 | 15.56° C | 96% | 1003.6 hPa | 0 mm | - | - | - |
| 1777587261 | 15.56° C | 97% | 1003.6 hPa | 0 mm | - | - | - |
| 1777586361 | 15.56° C | 97% | 1003.4 hPa | 0 mm | - | - | - |
| 1777585461 | 15.56° C | 96% | 1003.3 hPa | 0 mm | - | - | - |
| 1777584561 | 16.11° C | 96% | 1002.9 hPa | 0 mm | - | - | - |
| 1777583661 | 15.56° C | 97% | 1002.8 hPa | 0 mm | - | - | - |
| 1777582760 | 15.56° C | 97% | 1002.6 hPa | 0 mm | - | - | - |
| 1777581860 | 15.56° C | 98% | 1002.4 hPa | 0 mm | - | - | - |
| 1777580960 | 15.56° C | 98% | 1002.5 hPa | 0 mm | - | - | - |
| 1777580060 | 15° C | 98% | 1002.2 hPa | 0 mm | - | - | - |
| 1777579160 | 14.44° C | 98% | 1002.6 hPa | 0 mm | - | - | - |
| 1777578260 | 14.44° C | 98% | 1002.5 hPa | 0 mm | - | - | - |
| 1777577360 | 14.44° C | 98% | 1002.4 hPa | 0 mm | - | - | - |
| 1777576460 | 14.44° C | 98% | 1001.8 hPa | 0 mm | - | - | - |
| 1777575560 | 14.44° C | 98% | 1002.2 hPa | 0 mm | - | - | - |
| 1777574659 | 14.44° C | 97% | 1002.2 hPa | 0 mm | - | - | - |
| 1777573759 | 14.44° C | 97% | 1002.3 hPa | 0 mm | - | - | - |
| 1777572859 | 14.44° C | 97% | 1002.7 hPa | 0 mm | - | - | - |
| 1777571959 | 14.44° C | 97% | 1003.2 hPa | 0 mm | - | - | - |
| 1777571059 | 14.44° C | 97% | 1003.4 hPa | 0 mm | - | - | - |
| 1777570159 | 14.44° C | 97% | 1003.5 hPa | 0 mm | - | - | - |
| 1777569259 | 15° C | 97% | 1003.8 hPa | 0 mm | - | - | - |
* Rain latest hour (hover to see other rain measurements)
** Current wind speed in m/s (hover to see current wind gust speed)